Regional Weather Roundup
Issued by NWS Goodland, KS

Home | Current Version | Previous Version | Text Only | Print | Product List | Glossary Off
Versions: 1 2 3 4 5 6 7 8 9 10 11 12 13 14 15 16 17 18 19 20 21 22 23 24 25 26 27 28 29 30 31 32 33 34 35 36 37 38 39 40 41 42 43 44 45 46 47 48 49 50

000
ASUS43 KGLD 200459
RWRGLD

GOODLAND FORECAST AREA HOURLY WEATHER ROUNDUP
NATIONAL WEATHER SERVICE GOODLAND KS
1100 PM MDT TUE SEP 19 2017

...OFFICIAL OBSERVATIONS...

CITY           SKY/WX    TMP DP  RH WIND       PRES   REMARKS
GOODLAND KS    CLEAR     58  35  42 N17G25    29.79R
HILL CITY KS   CLOUDY    69  39  33 N16G28    29.69R
IMPERIAL NEB   CLEAR     57  31  37 NW13      29.77R
MCCOOK NEB     CLEAR     61  39  44 NW9       29.71R
AKRON CO       CLEAR     50  31  48 NW20      29.85R
BURLINGTON CO  CLEAR     55  33  43 N20G32    29.84R
LIMON CO       CLOUDY    45  30  55 N9        29.89R
$$

...UNOFFICIAL OBSERVATIONS...

CITY           SKY/WX    TMP DP  RH WIND       PRES   REMARKS
LENORA KS        N/A     66  32  28 MISG        N/A
NORTON KS      CLEAR     64  30  27 NW16G23   29.67R
SHARON SPRINGS   N/A     60  38  45 NE12G25     N/A
TRENTON NEB      N/A     59  32  36 NW9         N/A
KIT CARSON CO    N/A     55  33  43 MISG        N/A
YUMA CO        FAIR      52  19  28 NW12G20   29.83R
$$



USA.gov is the U.S. government's official web portal to all federal, state and local government web resources and services.